TimeCDT,TemperatureF,Dew PointF,Humidity,Sea Level PressureIn,VisibilityMPH,Wind Direction,Wind SpeedMPH,Gust SpeedMPH,PrecipitationIn,Events,Conditions,WindDirDegrees,DateUTC
12:15 AM,66.2,55.4,68,30.03,10.0,SSW,9.2,-,N/A,,Clear,200,2013-08-27 05:15:00
12:35 AM,68.0,53.6,60,30.03,10.0,SW,5.8,-,N/A,,Clear,220,2013-08-27 05:35:00
12:55 AM,66.2,53.6,64,30.03,10.0,Calm,Calm,-,N/A,,Clear,0,2013-08-27 05:55:00
1:15 AM,66.2,53.6,64,30.03,10.0,SW,3.5,-,N/A,,Clear,220,2013-08-27 06:15:00
1:35 AM,66.2,53.6,64,30.02,10.0,SSW,4.6,-,N/A,,Clear,200,2013-08-27 06:35:00
1:55 AM,66.2,53.6,64,30.02,10.0,Calm,Calm,-,N/A,,Clear,0,2013-08-27 06:55:00
2:15 AM,66.2,53.6,64,30.02,10.0,SSW,8.1,-,N/A,,Clear,200,2013-08-27 07:15:00
2:35 AM,64.4,53.6,68,30.02,10.0,Calm,Calm,-,N/A,,Clear,0,2013-08-27 07:35:00
2:55 AM,66.2,53.6,64,30.02,10.0,Calm,Calm,-,N/A,,Clear,0,2013-08-27 07:55:00
3:15 AM,64.4,53.6,68,30.02,10.0,SSE,3.5,-,N/A,,Clear,150,2013-08-27 08:15:00
3:35 AM,64.4,53.6,68,30.02,10.0,South,3.5,-,N/A,,Clear,190,2013-08-27 08:35:00
3:55 AM,68.0,50.0,52,30.02,10.0,South,3.5,-,N/A,,Clear,180,2013-08-27 08:55:00
4:15 AM,66.2,51.8,60,30.02,10.0,South,4.6,-,N/A,,Clear,180,2013-08-27 09:15:00
4:35 AM,68.0,50.0,52,30.02,10.0,Calm,Calm,-,N/A,,Clear,0,2013-08-27 09:35:00
4:55 AM,66.2,51.8,60,30.01,10.0,Calm,Calm,-,N/A,,Clear,0,2013-08-27 09:55:00
5:15 AM,68.0,50.0,52,30.02,10.0,North,5.8,-,N/A,,Clear,350,2013-08-27 10:15:00
5:35 AM,68.0,50.0,52,30.02,10.0,WSW,3.5,-,N/A,,Clear,250,2013-08-27 10:35:00
5:55 AM,68.0,51.8,56,30.02,10.0,Calm,Calm,-,N/A,,Clear,0,2013-08-27 10:55:00
6:15 AM,66.2,50.0,56,30.03,10.0,ESE,4.6,-,N/A,,Clear,120,2013-08-27 11:15:00
6:35 AM,69.8,50.0,49,30.03,10.0,Calm,Calm,-,N/A,,Clear,0,2013-08-27 11:35:00
6:55 AM,69.8,50.0,49,30.03,10.0,SSE,5.8,-,N/A,,Clear,150,2013-08-27 11:55:00
7:15 AM,71.6,53.6,53,30.03,10.0,Calm,Calm,-,N/A,,Clear,0,2013-08-27 12:15:00
7:35 AM,75.2,55.4,50,30.03,10.0,East,4.6,-,N/A,,Clear,100,2013-08-27 12:35:00
7:55 AM,75.2,55.4,50,30.03,10.0,East,3.5,-,N/A,,Clear,100,2013-08-27 12:55:00
8:15 AM,77.0,57.2,50,30.04,10.0,West,3.5,-,N/A,,Clear,270,2013-08-27 13:15:00
8:35 AM,77.0,55.4,47,30.04,10.0,North,3.5,-,N/A,,Clear,10,2013-08-27 13:35:00
8:55 AM,80.6,55.4,42,30.04,10.0,Calm,Calm,-,N/A,,Clear,0,2013-08-27 13:55:00
9:15 AM,80.6,57.2,45,30.04,10.0,North,4.6,-,N/A,,Clear,360,2013-08-27 14:15:00
9:35 AM,84.2,53.6,35,30.04,10.0,NNE,3.5,-,N/A,,Clear,20,2013-08-27 14:35:00
9:55 AM,84.2,53.6,35,30.04,10.0,NNW,4.6,-,N/A,,Clear,340,2013-08-27 14:55:00
10:15 AM,84.2,53.6,35,30.05,10.0,NNW,3.5,-,N/A,,Clear,330,2013-08-27 15:15:00
10:35 AM,84.2,59.0,42,30.05,10.0,ENE,9.2,-,N/A,Rain,Light Rain,70,2013-08-27 15:35:00
10:55 AM,84.2,59.0,42,30.05,10.0,NE,10.4,-,N/A,,Clear,50,2013-08-27 15:55:00
11:15 AM,84.2,59.0,42,30.05,10.0,NE,5.8,-,N/A,,Clear,50,2013-08-27 16:15:00
11:35 AM,84.2,57.2,40,30.06,10.0,NE,5.8,-,N/A,,Clear,50,2013-08-27 16:35:00
11:55 AM,84.2,57.2,40,30.05,10.0,East,8.1,-,N/A,,Clear,80,2013-08-27 16:55:00
12:15 PM,86.0,59.0,40,30.04,10.0,ENE,11.5,-,N/A,Rain,Light Rain,60,2013-08-27 17:15:00
12:35 PM,86.0,57.2,37,30.04,10.0,NE,11.5,-,N/A,,Clear,40,2013-08-27 17:35:00
12:55 PM,86.0,57.2,37,30.03,10.0,East,4.6,-,N/A,,Clear,80,2013-08-27 17:55:00
1:15 PM,86.0,57.2,37,30.03,10.0,NNE,5.8,-,N/A,Rain,Light Rain,20,2013-08-27 18:15:00
1:35 PM,87.8,57.2,35,30.03,10.0,NNE,8.1,-,N/A,,Clear,30,2013-08-27 18:35:00
1:55 PM,87.8,57.2,35,30.03,10.0,NE,6.9,-,N/A,,Clear,50,2013-08-27 18:55:00
2:15 PM,89.6,55.4,31,30.02,10.0,North,8.1,-,N/A,,Clear,350,2013-08-27 19:15:00
2:35 PM,89.6,55.4,31,30.02,10.0,NNW,5.8,-,N/A,,Clear,340,2013-08-27 19:35:00
2:55 PM,89.6,55.4,31,30.02,10.0,ENE,4.6,-,N/A,Rain,Light Rain,60,2013-08-27 19:55:00
3:15 PM,89.6,57.2,33,30.01,10.0,NNE,8.1,-,N/A,Rain,Light Rain,30,2013-08-27 20:15:00
3:35 PM,89.6,57.2,33,30.01,10.0,NE,8.1,-,N/A,Rain,Light Rain,40,2013-08-27 20:35:00
3:55 PM,89.6,57.2,33,30.00,10.0,NNE,8.1,-,N/A,,Clear,30,2013-08-27 20:55:00
4:15 PM,89.6,57.2,33,30.00,10.0,NE,9.2,-,N/A,,Clear,50,2013-08-27 21:15:00
4:35 PM,89.6,55.4,31,30.00,10.0,East,4.6,-,N/A,,Clear,80,2013-08-27 21:35:00
4:55 PM,89.6,55.4,31,30.01,10.0,North,3.5,-,N/A,,Clear,350,2013-08-27 21:55:00
5:15 PM,89.6,55.4,31,30.00,10.0,North,5.8,-,N/A,,Clear,10,2013-08-27 22:15:00
5:35 PM,89.6,55.4,31,30.00,10.0,East,3.5,-,N/A,,Clear,80,2013-08-27 22:35:00
5:55 PM,89.6,57.2,33,30.00,10.0,NNE,5.8,-,N/A,,Clear,30,2013-08-27 22:55:00
6:15 PM,86.0,55.4,35,30.00,10.0,Calm,Calm,-,N/A,,Clear,0,2013-08-27 23:15:00
6:35 PM,87.8,57.2,35,30.00,10.0,North,8.1,-,N/A,,Clear,350,2013-08-27 23:35:00
6:55 PM,86.0,57.2,37,30.00,10.0,NNE,5.8,-,N/A,,Clear,20,2013-08-27 23:55:00
7:15 PM,84.2,59.0,42,30.01,10.0,NNW,6.9,-,N/A,,Clear,330,2013-08-28 00:15:00
7:35 PM,84.2,57.2,40,30.02,10.0,North,6.9,-,N/A,,Clear,360,2013-08-28 00:35:00
7:55 PM,77.0,62.6,61,30.04,10.0,NE,13.8,-,N/A,,Scattered Clouds,40,2013-08-28 00:55:00
8:15 PM,75.2,62.6,65,30.06,10.0,ESE,3.5,-,N/A,,Scattered Clouds,110,2013-08-28 01:15:00
8:35 PM,73.4,62.6,69,30.06,10.0,Calm,Calm,-,N/A,,Partly Cloudy,0,2013-08-28 01:35:00
8:55 PM,73.4,62.6,69,30.07,10.0,Calm,Calm,-,N/A,,Clear,0,2013-08-28 01:55:00
9:15 PM,71.6,62.6,73,30.08,10.0,Calm,Calm,-,N/A,,Clear,0,2013-08-28 02:15:00
9:35 PM,71.6,62.6,73,30.08,10.0,Calm,Calm,-,N/A,,Clear,0,2013-08-28 02:35:00
9:55 PM,69.8,62.6,78,30.08,10.0,NE,3.5,-,N/A,,Clear,40,2013-08-28 02:55:00
10:15 PM,68.0,62.6,83,30.08,10.0,NE,4.6,-,N/A,,Clear,50,2013-08-28 03:15:00
10:35 PM,68.0,62.6,83,30.08,10.0,East,4.6,-,N/A,,Clear,80,2013-08-28 03:35:00
10:55 PM,66.2,60.8,83,30.08,10.0,SSE,3.5,-,N/A,,Clear,160,2013-08-28 03:55:00
11:15 PM,66.2,60.8,83,30.08,10.0,South,3.5,-,N/A,,Clear,180,2013-08-28 04:15:00
11:35 PM,64.4,60.8,88,30.07,10.0,South,6.9,-,N/A,,Clear,180,2013-08-28 04:35:00
11:55 PM,66.2,60.8,83,30.06,10.0,Calm,Calm,-,N/A,,Clear,0,2013-08-28 04:55:00